• In Austria
  • List of Countries
  • For 7 days
  • Water Temperature
  • Satellite Maps
  • Weather Map
  • News
  • Weather Widgets
  • user-avatar
    Login

    Hourly Weather Livingstone

    Today, 22 October, Sunday

    Time Temperature Precipitation Wind Pressure Humidity
    00:00 +28°C° 0 mm 3 mps 684 mmHg 44%
    01:00 +28°C° 0 mm 3 mps 684 mmHg 47%
    02:00 +27°C° 0 mm 3 mps 684 mmHg 54%
    03:00 +26°C° 0 mm 3 mps 684 mmHg 55%
    04:00 +26°C° 0 mm 3 mps 684 mmHg 56%
    05:00 +26°C° 0 mm 4 mps 684 mmHg 57%
    06:00 +27°C° 0 mm 4 mps 685 mmHg 51%
    07:00 +29°C° 0 mm 5 mps 686 mmHg 45%
    08:00 +32°C° 0 mm 6 mps 687 mmHg 39%
    09:00 +33°C° 0 mm 5 mps 687 mmHg 34%
    10:00 +35°C° 0 mm 5 mps 686 mmHg 29%
    11:00 +37°C° 0 mm 5 mps 686 mmHg 24%
    12:00 +37°C° 0 mm 5 mps 686 mmHg 22%
    13:00 +38°C° 0 mm 4 mps 685 mmHg 21%
    14:00 +38°C° 0 mm 4 mps 685 mmHg 20%
    15:00 +38°C° 0 mm 4 mps 684 mmHg 20%
    16:00 +37°C° 0 mm 4 mps 684 mmHg 20%
    17:00 +37°C° 0 mm 4 mps 684 mmHg 21%
    18:00 +36°C° 0 mm 4 mps 684 mmHg 23%
    19:00 +34°C° 0 mm 4 mps 684 mmHg 26%
    20:00 +33°C° 0 mm 3 mps 684 mmHg 28%
    21:00 +31°C° 0 mm 3 mps 684 mmHg 31%
    22:00 +30°C° 0 mm 2 mps 684 mmHg 33%
    23:00 +29°C° 0 mm 2 mps 684 mmHg 35%

    Tomorrow, 23 October, Monday

    Time Temperature Precipitation Wind Pressure Humidity
    00:00 +28°C° 0 mm 2 mps 684 mmHg 37%
    01:00 +27°C° 0 mm 2 mps 683 mmHg 38%
    02:00 +27°C° 0 mm 2 mps 683 mmHg 39%
    03:00 +27°C° 0 mm 2 mps 683 mmHg 40%
    04:00 +27°C° 0 mm 2 mps 683 mmHg 41%
    05:00 +26°C° 0 mm 2 mps 683 mmHg 42%
    06:00 +28°C° 0 mm 3 mps 684 mmHg 40%
    07:00 +29°C° 0 mm 4 mps 684 mmHg 38%
    08:00 +30°C° 0 mm 5 mps 685 mmHg 36%
    09:00 +33°C° 0 mm 5 mps 685 mmHg 32%
    10:00 +35°C° 0 mm 5 mps 685 mmHg 27%
    11:00 +37°C° 0 mm 5 mps 686 mmHg 23%
    12:00 +39°C° 0 mm 5 mps 685 mmHg 21%
    13:00 +38°C° 0 mm 4 mps 684 mmHg 20%
    14:00 +40°C° 0 mm 4 mps 683 mmHg 18%
    15:00 +38°C° 0 mm 4 mps 683 mmHg 18%
    16:00 +38°C° 0 mm 4 mps 683 mmHg 19%
    17:00 +37°C° 0 mm 4 mps 682 mmHg 19%
    18:00 +36°C° 0 mm 3 mps 683 mmHg 21%
    19:00 +34°C° 0 mm 3 mps 683 mmHg 23%
    20:00 +31°C° 0 mm 2 mps 683 mmHg 25%
    21:00 +31°C° 0 mm 2 mps 683 mmHg 27%
    22:00 +30°C° 0 mm 2 mps 683 mmHg 29%
    23:00 +29°C° 0 mm 1 mps 683 mmHg 31%

    Day after tomorrow, 24 October, Tuesday

    Time Temperature Precipitation Wind Pressure Humidity
    00:00 +28°C° 0 mm 1 mps 683 mmHg 32%
    01:00 +28°C° 0 mm 1 mps 682 mmHg 33%
    02:00 +27°C° 0 mm 1 mps 682 mmHg 34%
    03:00 +27°C° 0 mm 1 mps 682 mmHg 35%
    04:00 +26°C° 0 mm 1 mps 682 mmHg 36%
    05:00 +26°C° 0 mm 2 mps 681 mmHg 37%
    06:00 +28°C° 0 mm 2 mps 682 mmHg 33%
    07:00 +30°C° 0 mm 3 mps 683 mmHg 30%
    08:00 +33°C° 0 mm 4 mps 684 mmHg 27%
    09:00 +35°C° 0 mm 3 mps 684 mmHg 23%
    10:00 +37°C° 0 mm 3 mps 684 mmHg 20%
    11:00 +39°C° 0 mm 3 mps 685 mmHg 17%
    12:00 +40°C° 0 mm 3 mps 684 mmHg 15%
    13:00 +42°C° 0 mm 3 mps 683 mmHg 14%
    14:00 +42°C° 0 mm 2 mps 682 mmHg 12%
    15:00 +42°C° 0 mm 3 mps 681 mmHg 13%
    16:00 +40°C° 0 mm 3 mps 681 mmHg 14%
    17:00 +39°C° 0 mm 3 mps 681 mmHg 15%
    18:00 +37°C° 0 mm 3 mps 681 mmHg 16%
    19:00 +36°C° 0 mm 3 mps 682 mmHg 18%
    20:00 +35°C° 0 mm 3 mps 682 mmHg 20%
    21:00 +34°C° 0 mm 3 mps 682 mmHg 21%
    22:00 +32°C° 0 mm 2 mps 682 mmHg 23%
    23:00 +30°C° 0 mm 2 mps 682 mmHg 24%

    25 October, Wednesday

    Time Temperature Precipitation Wind Pressure Humidity
    00:00 +30°C° 0 mm 2 mps 682 mmHg 25%
    01:00 +29°C° 0 mm 1 mps 681 mmHg 26%
    02:00 +29°C° 0 mm 1 mps 681 mmHg 27%
    03:00 +28°C° 0 mm 1 mps 681 mmHg 28%
    04:00 +28°C° 0 mm 1 mps 681 mmHg 29%
    05:00 +27°C° 0 mm 1 mps 681 mmHg 29%
    06:00 +29°C° 0 mm 2 mps 681 mmHg 26%
    07:00 +31°C° 0 mm 2 mps 682 mmHg 23%
    08:00 +35°C° 0 mm 2 mps 683 mmHg 19%
    09:00 +37°C° 0 mm 2 mps 683 mmHg 17%
    10:00 +39°C° 0 mm 3 mps 683 mmHg 15%
    11:00 +42°C° 0 mm 3 mps 683 mmHg 12%
    12:00 +42°C° 0 mm 2 mps 683 mmHg 11%
    13:00 +45°C° 0 mm 2 mps 682 mmHg 10%
    14:00 +45°C° 0 mm 1 mps 681 mmHg 9%
    15:00 +45°C° 0 mm 2 mps 681 mmHg 9%
    16:00 +43°C° 0 mm 2 mps 681 mmHg 10%
    17:00 +41°C° 0 mm 2 mps 680 mmHg 11%
    18:00 +40°C° 0 mm 3 mps 680 mmHg 12%
    19:00 +38°C° 0 mm 3 mps 681 mmHg 14%
    20:00 +36°C° 0 mm 3 mps 681 mmHg 16%
    21:00 +35°C° 0 mm 3 mps 681 mmHg 17%
    22:00 +34°C° 0 mm 2 mps 681 mmHg 18%
    23:00 +32°C° 0 mm 2 mps 681 mmHg 19%

    26 October, Thursday

    Time Temperature Precipitation Wind Pressure Humidity
    00:00 +32°C° 0 mm 2 mps 680 mmHg 20%
    01:00 +31°C° 0 mm 2 mps 680 mmHg 21%
    02:00 +30°C° 0 mm 1 mps 679 mmHg 22%
    03:00 +30°C° 0 mm 1 mps 679 mmHg 22%
    04:00 +29°C° 0 mm 1 mps 679 mmHg 23%
    05:00 +29°C° 0 mm 1 mps 679 mmHg 24%
    06:00 +31°C° 0 mm 1 mps 680 mmHg 22%
    07:00 +34°C° 0 mm 2 mps 681 mmHg 19%
    08:00 +36°C° 0 mm 2 mps 682 mmHg 17%
    09:00 +38°C° 0 mm 3 mps 682 mmHg 15%
    10:00 +40°C° 0 mm 3 mps 682 mmHg 13%
    11:00 +43°C° 0 mm 3 mps 682 mmHg 11%
    12:00 +44°C° 0 mm 3 mps 681 mmHg 11%
    13:00 +43°C° 0 mm 2 mps 680 mmHg 11%
    14:00 +43°C° 0 mm 2 mps 679 mmHg 10%
    15:00 +43°C° 0 mm 2 mps 679 mmHg 11%
    16:00 +42°C° 0 mm 2 mps 679 mmHg 11%
    17:00 +42°C° 0 mm 2 mps 678 mmHg 11%
    18:00 +40°C° 0 mm 2 mps 678 mmHg 13%
    19:00 +38°C° 0 mm 2 mps 678 mmHg 14%
    20:00 +36°C° 0 mm 2 mps 679 mmHg 16%
    21:00 +36°C° 0 mm 2 mps 679 mmHg 16%
    22:00 +35°C° 0 mm 2 mps 679 mmHg 17%
    23:00 +35°C° 0 mm 2 mps 679 mmHg 18%

    27 October, Friday

    Time Temperature Precipitation Wind Pressure Humidity
    00:00 +35°C° 0 mm 2 mps 678 mmHg 18%
    01:00 +34°C° 0 mm 2 mps 678 mmHg 19%
    02:00 +34°C° 0 mm 2 mps 678 mmHg 20%
    03:00 +34°C° 0 mm 2 mps 678 mmHg 21%
    04:00 +32°C° 0 mm 2 mps 678 mmHg 23%
    05:00 +32°C° 0 mm 2 mps 678 mmHg 24%
    06:00 +34°C° 0 mm 2 mps 679 mmHg 23%
    07:00 +35°C° 0 mm 2 mps 679 mmHg 22%
    08:00 +36°C° 0 mm 1 mps 680 mmHg 21%
    09:00 +39°C° 0 mm 1 mps 680 mmHg 18%
    10:00 +42°C° 0 mm 1 mps 680 mmHg 15%
    11:00 +44°C° 0 mm 1 mps 680 mmHg 13%
    12:00 +44°C° 0 mm 1 mps 679 mmHg 13%
    13:00 +43°C° 0 mm 1 mps 678 mmHg 12%
    14:00 +43°C° 0 mm 1 mps 678 mmHg 12%
    15:00 +42°C° 0 mm 2 mps 677 mmHg 13%
    16:00 +42°C° 0 mm 2 mps 677 mmHg 14%
    17:00 +41°C° 0 mm 2 mps 677 mmHg 15%
    18:00 +39°C° 0.2 mm 2 mps 678 mmHg 18%
    19:00 +37°C° 0.2 mm 2 mps 678 mmHg 22%
    20:00 +35°C° 0.2 mm 2 mps 678 mmHg 25%
    21:00 +34°C° 0.1 mm 2 mps 679 mmHg 28%
    22:00 +32°C° 0.1 mm 2 mps 679 mmHg 30%
    23:00 +33°C° 0.1 mm 3 mps 679 mmHg 32%
    Show more